AA7F Weather Reports


time (UTC)temp
C
wind
direction
speed
KPH
gust
KPH
rain 1hr
cm
rain 24hr
cm
rain mn
cm
humidity
%
barometer
mb
20260503050359 17 57 0.0 0.0 0.00 0.00 0.00 53 1012.5
20260503045857 18 65 0.0 0.0 0.00 0.00 0.00 53 1012.4
20260503045355 18 2 0.0 0.0 0.00 0.00 0.00 50 1012.4
20260503044851 18 30 0.0 0.0 0.00 0.00 0.00 52 1012.3
20260503044348 18 38 0.0 0.0 0.00 0.00 0.00 52 1012.3
20260503043845 18 50 0.0 0.0 0.00 0.00 0.00 53 1012.3
20260503043342 18 39 0.0 0.0 0.00 0.00 0.00 50 1012.4
20260503042838 18 31 0.0 0.0 0.00 0.00 0.00 51 1012.3
20260503042335 18 28 0.0 0.0 0.00 0.00 0.00 52 1012.2
20260503041831 18 359 0.0 0.0 0.00 0.00 0.00 52 1012.0
20260503041329 18 4 0.0 0.0 0.00 0.00 0.00 51 1012.1
20260503040826 19 327 0.0 0.0 0.00 0.00 0.00 47 1011.9
20260503040324 19 255 0.0 0.0 0.00 0.00 0.00 46 1011.9
20260503035821 19 285 0.0 0.0 0.00 0.00 0.00 46 1011.9
20260503035317 20 339 0.0 0.0 0.00 0.00 0.00 44 1011.7
20260503034815 20 308 0.0 0.0 0.00 0.00 0.00 42 1011.7
20260503034312 21 354 0.0 0.0 0.00 0.00 0.00 42 1011.3
20260503033809 21 339 0.0 1.6 0.00 0.00 0.00 40 1011.6
20260503033306 21 316 0.0 1.6 0.00 0.00 0.00 40 1011.3
20260503032805 21 315 0.0 0.0 0.00 0.00 0.00 41 1011.4
20260503032304 21 343 0.0 0.0 0.00 0.00 0.00 40 1011.4
20260503031800 22 311 0.0 1.6 0.00 0.00 0.00 38 1011.1
20260503031258 21 326 0.0 4.8 0.00 0.00 0.00 38 1011.2
20260503030754 22 313 0.0 1.6 0.00 0.00 0.00 41 1011.1
20260503030250 22 341 4.8 9.7 0.00 0.00 0.00 39 1011.0
20260503025747 22 319 4.8 12.9 0.00 0.00 0.00 37 1010.9
20260503025245 22 339 0.0 11.3 0.00 0.00 0.00 37 1011.0
20260503024742 22 340 1.6 3.2 0.00 0.00 0.00 38 1011.0
20260503024238 22 319 0.0 1.6 0.00 0.00 0.00 38 1010.9
20260503023735 22 309 1.6 4.8 0.00 0.00 0.00 38 1010.9
20260503023232 23 314 3.2 4.8 0.00 0.00 0.00 38 1010.9
20260503022728 23 339 0.0 3.2 0.00 0.00 0.00 38 1010.7
20260503022228 23 319 0.0 4.8 0.00 0.00 0.00 37 1010.9
20260503021725 23 311 0.0 4.8 0.00 0.00 0.00 39 1010.9
20260503021221 23 313 0.0 3.2 0.00 0.00 0.00 40 1010.8
20260503020719 23 322 1.6 11.3 0.00 0.00 0.00 38 1010.9
20260503020217 23 344 3.2 11.3 0.00 0.00 0.00 39 1010.9
20260503015713 23 336 3.2 9.7 0.00 0.00 0.00 39 1010.9
20260503015210 23 330 0.0 3.2 0.00 0.00 0.00 39 1010.6
20260503014706 23 337 0.0 3.2 0.00 0.00 0.00 41 1011.1
20260503014204 23 338 0.0 8.0 0.00 0.00 0.00 43 1010.9
20260503013701 23 332 0.0 9.7 0.00 0.00 0.00 42 1010.6
20260503013159 25 334 0.0 0.0 0.00 0.00 0.00 41 1010.8
20260503012656 25 324 0.0 0.0 0.00 0.00 0.00 37 1010.8
20260503012153 26 305 0.0 1.6 0.00 0.00 0.00 38 1010.8
20260503011649 26 308 0.0 1.6 0.00 0.00 0.00 35 1010.6
20260503011146 26 272 0.0 0.0 0.00 0.00 0.00 33 1011.0
20260503010642 26 290 0.0 0.0 0.00 0.00 0.00 34 1010.7
20260503010139 26 251 0.0 1.6 0.00 0.00 0.00 30 1010.7
20260503005637 26 310 0.0 1.6 0.00 0.00 0.00 32 1011.0
20260503005134 26 282 0.0 1.6 0.00 0.00 0.00 30 1010.9
20260503004630 26 263 4.8 11.3 0.00 0.00 0.00 28 1011.0
20260503004129 26 285 0.0 0.0 0.00 0.00 0.00 32 1010.8
20260503003625 26 271 0.0 0.0 0.00 0.00 0.00 26 1011.0
20260503003122 27 267 0.0 0.0 0.00 0.00 0.00 27 1010.9
20260503002619 27 296 0.0 0.0 0.00 0.00 0.00 26 1011.0
20260503002116 27 252 0.0 0.0 0.00 0.00 0.00 27 1011.2
20260503001612 27 292 0.0 4.8 0.00 0.00 0.00 28 1011.2
20260503001109 27 249 0.0 9.7 0.00 0.00 0.00 26 1011.1
20260503000607 26 241 1.6 3.2 0.00 0.00 0.00 26 1011.1
20260503000104 27 286 0.0 3.2 0.00 0.00 0.00 26 1011.2
20260502235600 27 267 0.0 3.2 0.00 0.00 0.00 27 1011.0
20260502235058 27 280 0.0 1.6 0.00 0.00 0.00 27 1011.1
20260502234554 27 293 0.0 0.0 0.00 0.00 0.00 31 1011.3
20260502234052 27 292 0.0 1.6 0.00 0.00 0.00 27 1011.4
20260502233552 27 312 0.0 4.8 0.00 0.00 0.00 28 1011.2
20260502233049 27 267 0.0 0.0 0.00 0.00 0.00 26 1011.4
20260502232545 27 243 0.0 0.0 0.00 0.00 0.00 34 1011.4
20260502232043 27 266 0.0 0.0 0.00 0.00 0.00 28 1011.4
20260502231539 27 274 0.0 1.6 0.00 0.00 0.00 32 1011.4
20260502231037 27 265 1.6 8.0 0.00 0.00 0.00 29 1011.7
20260502230535 27 271 4.8 9.7 0.00 0.00 0.00 30 1011.8
20260502230034 27 210 0.0 0.0 0.00 0.00 0.00 30 1011.9
20260502225529 27 204 0.0 0.0 0.00 0.00 0.00 29 1011.9
20260502225026 27 268 0.0 8.0 0.00 0.00 0.00 28 1011.8
20260502224522 27 223 0.0 0.0 0.00 0.00 0.00 34 1012.1
20260502224019 26 317 0.0 0.0 0.00 0.00 0.00 35 1012.1
20260502223517 27 226 1.6 3.2 0.00 0.00 0.00 27 1011.9
20260502223015 27 233 0.0 0.0 0.00 0.00 0.00 31 1012.1
20260502222512 27 220 0.0 0.0 0.00 0.00 0.00 31 1012.2
20260502222009 27 219 0.0 0.0 0.00 0.00 0.00 29 1012.3
20260502221504 27 209 0.0 0.0 0.00 0.00 0.00 27 1012.4
20260502221002 27 205 0.0 0.0 0.00 0.00 0.00 33 1012.2
20260502220457 27 263 0.0 0.0 0.00 0.00 0.00 26 1012.5
20260502215954 27 131 0.0 0.0 0.00 0.00 0.00 28 1012.7
20260502215451 27 239 0.0 0.0 0.00 0.00 0.00 28 1012.6
20260502214948 27 168 0.0 0.0 0.00 0.00 0.00 34 1012.6
20260502214445 27 68 0.0 0.0 0.00 0.00 0.00 36 1012.7
20260502213942 27 183 0.0 0.0 0.00 0.00 0.00 33 1012.8
20260502213439 27 98 0.0 0.0 0.00 0.00 0.00 37 1012.9
20260502212938 27 111 0.0 0.0 0.00 0.00 0.00 31 1012.9
20260502212436 27 127 0.0 0.0 0.00 0.00 0.00 29 1012.9
20260502211933 27 138 0.0 0.0 0.00 0.00 0.00 35 1013.0
20260502211428 26 126 0.0 0.0 0.00 0.00 0.00 33 1013.2
20260502210926 26 189 0.0 0.0 0.00 0.00 0.00 33 1013.2
20260502210423 26 154 0.0 0.0 0.00 0.00 0.00 31 1013.2
20260502205920 26 184 0.0 0.0 0.00 0.00 0.00 33 1013.5
20260502205416 26 112 0.0 0.0 0.00 0.00 0.00 31 1013.2
20260502204914 26 171 0.0 0.0 0.00 0.00 0.00 33 1013.3
20260502204410 26 136 0.0 0.0 0.00 0.00 0.00 38 1013.5
20260502203908 26 151 0.0 0.0 0.00 0.00 0.00 32 1013.4
20260502203405 25 83 0.0 0.0 0.00 0.00 0.00 36 1013.7
20260502202901 25 170 0.0 0.0 0.00 0.00 0.00 37 1013.6
20260502202358 25 91 0.0 1.6 0.00 0.00 0.00 44 1013.7
20260502201856 25 117 0.0 4.8 0.00 0.00 0.00 39 1013.7
20260502201352 25 88 0.0 0.0 0.00 0.00 0.00 42 1014.0
20260502200849 24 101 0.0 0.0 0.00 0.00 0.00 41 1014.0
20260502200344 24 111 0.0 1.6 0.00 0.00 0.00 47 1014.1
20260502195843 24 154 0.0 4.8 0.00 0.00 0.00 41 1014.1
20260502195339 23 145 0.0 3.2 0.00 0.00 0.00 42 1013.8
20260502194836 24 107 0.0 3.2 0.00 0.00 0.00 39 1014.2
20260502194333 23 108 1.6 4.8 0.00 0.00 0.00 40 1014.0
20260502193828 23 102 0.0 8.0 0.00 0.00 0.00 39 1014.2
20260502193326 23 101 0.0 3.2 0.00 0.00 0.00 46 1014.4
20260502192821 23 114 1.6 8.0 0.00 0.00 0.00 42 1014.5
20260502192318 22 70 0.0 11.3 0.00 0.00 0.00 46 1014.2
20260502191816 22 106 1.6 9.7 0.00 0.00 0.00 40 1014.4
20260502191314 22 125 0.0 8.0 0.00 0.00 0.00 44 1014.7
20260502190810 22 101 3.2 9.7 0.00 0.00 0.00 42 1014.7
20260502190308 22 78 0.0 9.7 0.00 0.00 0.00 45 1014.8
20260502185803 22 98 3.2 8.0 0.00 0.00 0.00 42 1014.9
20260502185259 21 86 8.0 11.3 0.00 0.00 0.00 45 1014.7
20260502184756 21 83 4.8 11.3 0.00 0.00 0.00 45 1014.9
20260502184251 21 84 6.4 8.0 0.00 0.00 0.00 44 1015.0
20260502183748 21 82 0.0 3.2 0.00 0.00 0.00 53 1015.1
20260502183245 21 104 6.4 9.7 0.00 0.00 0.00 46 1014.9
20260502182740 21 76 0.0 8.0 0.00 0.00 0.00 47 1015.0
20260502182235 20 109 8.0 9.7 0.00 0.00 0.00 48 1015.1
20260502181732 20 85 9.7 17.7 0.00 0.00 0.00 48 1015.1
20260502181232 20 63 8.0 14.5 0.00 0.00 0.00 49 1015.3
20260502180728 20 106 4.8 12.9 0.00 0.00 0.00 50 1015.0
20260502180226 20 147 3.2 9.7 0.00 0.00 0.00 50 1015.0
20260502170150 16 96 6.4 16.1 0.00 0.00 0.00 57 1015.4
20260502164136 16 54 11.3 17.7 0.00 0.00 0.00 57 1015.4
20260502163632 16 120 11.3 20.9 0.00 0.00 0.00 58 1015.5
20260502163129 15 101 14.5 17.7 0.00 0.00 0.00 58 1015.7
20260502162626 15 85 16.1 22.5 0.00 0.00 0.00 59 1015.6
20260502162123 15 132 14.5 20.9 0.00 0.00 0.00 61 1015.6
20260502161620 15 103 16.1 20.9 0.00 0.00 0.00 62 1015.7
20260502161117 14 111 16.1 20.9 0.00 0.00 0.00 62 1015.5
20260502160615 14 106 14.5 17.7 0.00 0.00 0.00 64 1015.8
20260502160114 14 114 16.1 20.9 0.00 0.00 0.00 64 1015.8
20260502152028 11 43 9.7 16.1 0.00 0.00 0.00 72 1016.3
20260502151525 11 66 9.7 17.7 0.00 0.00 0.00 73 1015.9
20260502151022 11 111 9.7 16.1 0.00 0.00 0.00 73 1016.1
20260502150520 11 98 11.3 16.1 0.00 0.00 0.00 72 1016.0
20260502130404 8 103 9.7 12.9 0.00 0.00 0.00 78 1015.4
20260502123347 9 95 16.1 20.9 0.00 0.00 0.00 76 1015.3
20260502122844 9 91 16.1 22.5 0.00 0.00 0.00 75 1015.3
20260502122340 9 109 12.9 17.7 0.00 0.00 0.00 74 1015.2
20260502121839 9 87 14.5 20.9 0.00 0.00 0.00 75 1015.3
20260502121336 9 75 12.9 16.1 0.00 0.00 0.00 74 1015.3
20260502120833 8 60 11.3 20.9 0.00 0.00 0.00 76 1015.5
20260502120329 8 88 12.9 16.1 0.00 0.00 0.00 76 1015.6
20260502115827 8 91 11.3 14.5 0.00 0.00 0.00 77 1015.5
20260502115324 8 78 11.3 14.5 0.00 0.00 0.00 78 1015.4
20260502114820 8 93 9.7 14.5 0.00 0.00 0.00 77 1015.6
20260502114317 8 97 11.3 14.5 0.00 0.00 0.00 76 1015.6
20260502113814 9 82 11.3 16.1 0.00 0.00 0.00 76 1015.6
20260502113312 9 92 9.7 17.7 0.00 0.00 0.00 75 1015.7
20260502112810 9 109 14.5 17.7 0.00 0.00 0.00 75 1015.6
20260502112307 9 64 9.7 17.7 0.00 0.00 0.00 74 1015.3
20260502111804 10 108 12.9 17.7 0.00 0.00 0.00 72 1015.4
20260502111301 10 100 12.9 16.1 0.00 0.00 0.00 70 1015.3
20260502110759 10 70 9.7 14.5 0.00 0.00 0.00 72 1015.6
20260502110256 10 92 12.9 17.7 0.00 0.00 0.00 73 1015.4
20260502105754 10 72 12.9 24.1 0.00 0.00 0.00 73 1015.2
20260502105250 10 124 12.9 22.5 0.00 0.00 0.00 72 1015.0
20260502104748 10 101 11.3 16.1 0.00 0.00 0.00 72 1015.0
20260502104245 10 113 17.7 22.5 0.00 0.00 0.00 71 1015.1
20260502103743 11 86 14.5 22.5 0.00 0.00 0.00 69 1015.3
20260502103240 10 84 14.5 22.5 0.00 0.00 0.00 71 1015.2
20260502102738 10 63 19.3 22.5 0.00 0.00 0.00 71 1015.1
20260502102233 11 70 17.7 22.5 0.00 0.00 0.00 70 1015.0
20260502101732 10 86 17.7 24.1 0.00 0.00 0.00 71 1015.0
20260502101230 10 89 14.5 22.5 0.00 0.00 0.00 72 1014.9
20260502100727 10 59 14.5 24.1 0.00 0.00 0.00 70 1014.9
20260502100226 11 81 16.1 25.7 0.00 0.00 0.00 69 1015.0
20260502091200 12 88 12.9 27.4 0.00 0.00 0.00 65 1015.0
20260502090657 12 80 17.7 24.1 0.00 0.00 0.00 65 1015.0
20260502090154 12 63 12.9 20.9 0.00 0.00 0.00 65 1015.0
20260502071055 12 59 0.0 0.0 0.00 0.00 0.00 65 1014.6
20260502070553 11 62 0.0 0.0 0.00 0.00 0.00 69 1014.7
20260502070051 11 95 0.0 1.6 0.00 0.00 0.00 67 1014.9
20260502065549 11 27 0.0 0.0 0.00 0.00 0.00 69 1015.0
20260502065047 12 46 0.0 0.0 0.00 0.00 0.00 68 1015.1
20260502064545 12 35 0.0 0.0 0.00 0.00 0.00 65 1014.9
20260502064042 12 19 0.0 0.0 0.00 0.00 0.00 67 1014.8
20260502063539 13 80 0.0 0.0 0.00 0.00 0.00 62 1014.8
20260502063037 15 71 0.0 4.8 0.00 0.00 0.00 57 1014.7
20260502062534 15 77 9.7 16.1 0.00 0.00 0.00 55 1014.8
20260502062032 15 79 3.2 11.3 0.00 0.00 0.00 54 1014.7
20260502061530 12 68 0.0 9.7 0.00 0.00 0.00 61 1014.7
20260502061027 12 76 0.0 1.6 0.00 0.00 0.00 66 1014.8
20260502060522 12 86 0.0 1.6 0.00 0.00 0.00 66 1014.6
20260502060019 12 77 6.4 12.9 0.00 0.00 0.00 65 1014.7
20260502055516 12 63 0.0 3.2 0.00 0.00 0.00 63 1014.6
20260502055015 13 95 0.0 0.0 0.00 0.00 0.00 62 1014.6
20260502054513 13 81 0.0 1.6 0.00 0.00 0.00 62 1014.6
20260502054010 15 99 0.0 1.6 0.00 0.00 0.00 55 1014.5
20260502053507 15 76 0.0 8.0 0.00 0.00 0.00 55 1014.7
20260502053005 13 59 0.0 0.0 0.00 0.00 0.00 58 1014.6
20260502052503 13 84 0.0 0.0 0.00 0.00 0.00 61 1014.6
20260502052001 14 33 0.0 0.0 0.00 0.00 0.00 59 1014.6
20260502051459 14 64 0.0 0.0 0.00 0.00 0.00 59 1014.7
20260502050955 15 64 0.0 0.0 0.00 0.00 0.00 57 1014.5